Regional Weather Roundup
Issued by NWS

Home | Current Version | Previous Version | Text Only | Print | Product List | Glossary On
Versions: 1 2 3 4 5 6 7 8 9 10 11 12 13 14 15 16 17 18 19 20 21 22 23 24 25 26 27 28 29 30 31 32 33 34 35 36 37 38 39 40 41 42 43 44 45 46 47 48 49 50
639
ASUS43 KLOT 222212
RWRIL

ILLINOIS REGIONAL WEATHER ROUNDUP
NATIONAL WEATHER SERVICE CHICAGO/ROMEOVILLE IL
400 PM CST WED FEB 22 2017

NOTE: "FAIR" INDICATES FEW OR NO CLOUDS BELOW 12,000 FEET WITH NO
SIGNIFICANT WEATHER AND/OR OBSTRUCTIONS TO VISIBILITY.

* THESE STATIONS ARE NOT UNDER NWS QUALITY CONTROL. THEY ALSO MAY NOT
  REPORT WEATHER SUCH AS PRECIPITATION OR FOG.

ILZ001-002-007-009-015-016-024-222300-
NORTHWEST ILLINOIS

CITY           SKY/WX    TMP DP  RH WIND       PRES   REMARKS
MOLINE         SUNNY     72  52  49 S21G30    29.55F
STERLING*      SUNNY     69  55  60 S12G17    29.60F
SAVANNA*       SUNNY     71  52  49 S25       29.53F
$$

ILZ003-004-008-010-011-017-018-222300-
NORTH CENTRAL ILLINOIS

CITY           SKY/WX    TMP DP  RH WIND       PRES   REMARKS
ROCKFORD       MOSUNNY   69  50  50 S17       29.60F
FREEPORT*      SUNNY     66  55  66 S23G30    29.58F
ROCHELLE*      SUNNY     67  54  63 S21       29.62F
DE KALB*       SUNNY     65  54  68 S22G28    29.63F
PERU*          SUNNY     65  53  65 S17       29.64F
$$

ILZ005-006-012>014-019>023-222300-
NORTHEAST ILLINOIS

CITY           SKY/WX    TMP DP  RH WIND       PRES   REMARKS
CHICAGO-OHARE  SUNNY     67  52  58 S16       29.63F
CHICAGO-MIDWAY MOSUNNY   67  54  63 S15G23    29.65F
AURORA         SUNNY     68  54  60 S18G28    29.64F
LANSING*       MOSUNNY   65  58  79 SW16G22   29.68F
JOLIET*        SUNNY     68  56  63 S13G20    29.66F
WAUKEGAN       SUNNY     67  51  56 S16       29.60F
DUPAGE AIRPORT SUNNY     66  52  60 S20G26    29.63F
KANKAKEE*      MOSUNNY   67  56  67 SW14      29.70F
WHEELING       SUNNY     66  51  58 S17       29.63F
MORRIS*        SUNNY     67  55  64 S16G22    29.65F
ROMEOVILLE*    SUNNY     66  57  71 SW17G23   29.66F
NORTHERLY ISL    N/A     65  52  62 S20         N/A
$$

LMZ740>746-222300-
SOUTHERN LAKE MICHIGAN

STATION/POSITION SKY/WX   TEMP    WIND        PRES    VSBY  WAVE
                          AIR SEA DIR/SP/G                  HT/PER
                          (F)     (DEG/KT/KT) (MB)    (MI)  (FT/S)
HARRISON CRIB              57     190/ 16/ 17   N/A
BURNHAM HARBOR             66     190/ 18/ 20   N/A
CALUMET HARBOR             64     180/ 12/ 18 1004.3F
BURNS HARBOR               63     210/ 19/ 24 1005.8F
MICHIGAN CITY              62     190/ 16/ 18   N/A
$$

ILZ025>027-034>036-040-047-049-050-058-095>099-222300-
WEST-CENTRAL ILLINOIS

CITY           SKY/WX    TMP DP  RH WIND       PRES   REMARKS
QUINCY         SUNNY     66  53  63 S17       29.65F
GALESBURG*     SUNNY     67  56  67 S13G22    29.61F
MACOMB*        SUNNY     68  54  59 S17       29.65F
JACKSONVILLE*  MOSUNNY   60  55  83 S12       29.70S
PITTSFIELD*    CLOUDY    63  57  82 S9        29.70F
$$

ILZ028>032-037-038-041>044-048-051>054-059>061-222300-
CENTRAL ILLINOIS

CITY           SKY/WX    TMP DP  RH WIND       PRES   REMARKS
PONTIAC        MOSUNNY   68  58  70 S14       29.68F
BLOOMINGTON    MOSUNNY   65  56  72 S18       29.70F
DECATUR        SUNNY     69  55  60 SW15      29.72F
PEORIA         SUNNY     65  56  72 S16       29.66F
LACON*         SUNNY     67  55  65 SW12      29.63F
LINCOLN*       SUNNY     64  57  78 S10G18    29.70F
SPRINGFIELD    SUNNY     63  56  78 S14       29.71F
TAYLORVILLE    SUNNY     67  57  69 SW10G20   29.72F
$$

ILZ033-039-045-046-055>057-062-063-222300-
EAST-CENTRAL ILLINOIS

CITY           SKY/WX    TMP DP  RH WIND       PRES   REMARKS
CHAMPAIGN      MOSUNNY   70  54  56 SW16G23   29.72F
RANTOUL*       MOSUNNY   70  57  63 SW15G21   29.72S
MATTOON        PTSUNNY   69  58  67 S12       29.74F
PARIS*         CLOUDY    68  57  68 SW17      29.76S
$$

ILZ079-100>102-222300-
SOUTHWEST ILLINOIS

CITY           SKY/WX    TMP DP  RH WIND       PRES   REMARKS
ALTON          MOSUNNY   66  57  72 W6        29.72F
BELLEVILLE     CLOUDY    73  54  51 VRB3      29.71S
CAHOKIA*       CLOUDY    75  53  46 S8        29.70F
SPARTA*        MOSUNNY   72  56  56 S12G20    29.75S
$$

ILZ064>066-069>071-074>076-080>082-084>086-088>090-092>094-222300-
SOUTH-CENTRAL ILLINOIS

CITY           SKY/WX    TMP DP  RH WIND       PRES   REMARKS
CARBONDALE     MOSUNNY   71  55  56 S15       29.76F
CAIRO*         MOSUNNY   70  58  67 SW7       29.80S
EFFINGHAM*     MOSUNNY   72  57  58 S9G18     29.76S
MARION         MOSUNNY   73  55  53 S9        29.78F
MT. VERNON     SUNNY     71  55  56 S16       29.76S
CENTRALIA*     MOSUNNY   72  56  58 S15G21    29.74S
SALEM*         PTSUNNY   73  55  53 S12       29.75S
METROPOLIS*    PTSUNNY   71  57  62 SW6       29.80F
$$

ILZ067-068-072-073-078-083-087-091-222300-
SOUTHEAST ILLINOIS

CITY           SKY/WX    TMP DP  RH WIND       PRES   REMARKS
LAWRENCEVILLE  SUNNY     70  56  61 S16       29.77R
FLORA*         MOSUNNY   73  58  59 S13       29.75F
FAIRFIELD*     MOSUNNY   71  56  59 S7        29.75F
HARRISBURG*    SUNNY     70  56  62 S10       29.78S
ROBINSON*      PTSUNNY   71  55  58 SW15      29.77S
CARMI*         SUNNY     69  57  66 S14       29.77F
$$

ABBREVIATIONS USED IN REMARKS
   TC - TEMPERATURE IN CELSIUS
  WCI - WIND CHILL INDEX
   HX - HEAT INDEX
  VSB - VISIBILITY
$$





USA.gov is the U.S. government's official web portal to all federal, state and local government web resources and services.